Regional Weather Roundup
Issued by NWS

Home | Current Version | Previous Version | Text Only | Print | Product List | Glossary On
Versions: 1 2 3 4 5 6 7 8 9 10 11 12 13 14 15 16 17 18 19 20 21 22 23 24 25 26 27 28 29 30 31 32 33 34 35 36 37 38 39 40 41 42 43 44 45 46 47 48 49 50
000
ASUS43 KMPX 252210
RWRMN
WEATHER ROUNDUP FOR MINNESOTA
NATIONAL WEATHER SERVICE TWIN CITIES/CHANHASSEN MN
500 PM CDT THU AUG 25 2016


NOTE: "FAIR" INDICATES FEW OR NO CLOUDS BELOW 12,000 FEET WITH NO
SIGNIFICANT WEATHER AND/OR OBSTRUCTIONS TO VISIBILITY. N/A MEANS
CURRENT SKY AND/OR WEATHER CONDITIONS ARE NOT AVAILABLE.

MNZ060>063-068>070-252300-
   Twin Cities Metro

CITY           SKY/WX    TMP DP  RH WIND       PRES   REMARKS
TWIN CITIES    PTSUNNY   72  55  55 NW20      30.06S
ST PAUL        MOSUNNY   71  55  56 W14       30.06S
CRYSTAL        MOSUNNY   72  52  49 W17G25    30.06S
BLAINE         MOSUNNY   72  55  56 W15G22    30.06
LAKEVILLE      MOSUNNY   72  57  60 W10G16    30.07S
EDEN PRAIRIE   MOSUNNY   72  55  55 W14G21    30.06S
LAKEVILLE      MOSUNNY   72  57  60 W10G16    30.07S
SOUTH ST PAUL  MOSUNNY   73  54  51 W13G18    30.06S
LAKE ELMO      FAIR      70  57  64 NW10G17   30.07S
$$
MNZ001>005-007-008-013>017-022>024-027-028-252300-
   Northwest Minnesota

CITY           SKY/WX    TMP DP  RH WIND       PRES   REMARKS
BEMIDJI        CLOUDY    62  52  69 NW17      30.04R
HALLOCK        MOSUNNY   68  52  56 N5        30.02F
ROSEAU         MOSUNNY   66  54  63 NW10      30.01R
WARROAD        PTSUNNY   64  54  68 NW8       30.01R
THIEF RVR FALL CLOUDY    66  48  52 N14       30.05R
CROOKSTON      SUNNY     70  48  46 NW10      30.05S
FOSSTON        MOSUNNY   68  50  52 NW13G18   30.05S
DETROIT LAKES  MOSUNNY   64  52  63 NW10      30.08S
MOORHEAD       PTSUNNY   68  50  52 N6        30.08R
PARK RAPIDS    PTSUNNY   65  51  60 NW12      30.06R
MAHNOMEN       MOCLDY    67  48  50 NW14      30.05S
$$
MNZ006-009>011-018-025>026-252300-
   North Central Minnesota

CITY           SKY/WX    TMP DP  RH WIND       PRES   REMARKS
BAUDETTE       PTSUNNY   63  54  72 NW13      29.99R
FLAG ISLAND    MOSUNNY   63  52  67 NW9       29.98R
INTL FALLS     CLOUDY    63  56  78 NW13G24   29.95R
WASKISH        CLOUDY    61  55  82 NW6       30.01R
BIG FORK       PTSUNNY   64  55  72 W10G17    29.99R
LONGVILLE      CLOUDY    63  54  72 W14       30.04R
GRAND RAPIDS   CLOUDY    65  54  67 W14G23    30.02R
CRANE LAKE     CLOUDY    61  57  88 W6        29.95R
ORR            LGT RAIN  61  55  82 W9G20     29.93R
COOK           HVY RAIN  61  57  88 W8        29.97R
WALKER         CLOUDY    62  52  71 W8        30.04R
$$
MNZ012-019>021-037-252300-
   Northeast Minnesota

CITY           SKY/WX    TMP DP  RH WIND       PRES   REMARKS
DULUTH         PTSUNNY   68  54  60 W21G28    29.99S
ELY            MOSUNNY   64  54  68 W8        29.94S
HIBBING        CLOUDY    64  54  69 W10       29.98R
EVELETH        PTSUNNY   64  54  70 SW8       29.98S
DULUTH HARBOR  PTSUNNY   72  55  56 SW20G25   29.98S
TWO HARBORS    PTSUNNY   70  57  64 W13       29.95R
SILVER BAY     PTSUNNY   70  54  56 W7        29.93S
GRAND MARAIS     N/A     68  47  46 W13G22    29.88R
G MARAIS ARPRT CLOUDY    64  48  55 SW12G17   29.93R
$$
MNZ029>031-032-039>041-046>048-054>057-064-252300-
   West Central Minnesota

CITY           SKY/WX    TMP DP  RH WIND       PRES   REMARKS
FERGUS FALLS   CLOUDY    64  55  72 W10       30.10S
WHEATON        PTSUNNY   66  55  68 W8        30.12S
MORRIS         CLOUDY    66  52  59 W10       30.10S
ALEXANDRIA     CLOUDY    65  53  65 W12       30.10S
ELBOW LAKE     CLOUDY    63  55  75 W13       30.11R
WADENA         CLOUDY    63  54  72 W7        30.07S
GLENWOOD       MOSUNNY   64  54  68 W15       30.10S
APPLETON       PTSUNNY   70  52  52 NW13      30.10F
BENSON         CLOUDY    66  50  55 NW14      30.11S
ORTONVILLE     PTSUNNY   66  52  59 NW10      30.11F
MADISON        MOSUNNY   68  52  56 NW13      30.11S
WILLMAR        PTSUNNY   68  54  60 NW13      30.12S
$$
MNZ033>034-036-042>043-049>051-058-059-252300-
   Central Minnesota

CITY           SKY/WX    TMP DP  RH WIND       PRES   REMARKS
ST CLOUD       CLOUDY    69  54  58 W13       30.08S
SAUK CENTRE    CLOUDY    64  55  70 W9        30.09S
PAYNESVILLE    CLOUDY    66  53  63 NW10G17   30.10S
AITKIN         CLOUDY    68  54  60 W5        30.02R
PINE RIVER     CLOUDY    64  54  68 NW7       30.08R
BRAINERD       CLOUDY    66  54  65 W13G20    30.05R
STAPLES        RAIN      61  54  77 NW12G21   30.07S
LONG PRAIRIE   CLOUDY    64  52  63 SW8       30.09S
LITTLE FALLS   CLOUDY    64  52  63 W9        30.07S
LITCHFIELD     MOSUNNY   70  54  56 NW14      30.10S
BUFFALO        MOSUNNY   69  52  56 W15       30.09S
MAPLE LAKE     PTSUNNY   69  56  63 W8        30.09F
HUTCHINSON     MOSUNNY   71  57  62 W14       30.10F
$$
MNZ037-044-045-052-053-252300-
   East Central Minnesota

CITY           SKY/WX    TMP DP  RH WIND       PRES   REMARKS
PRINCETON      PTSUNNY   72  54  53 W16G23    30.07S
MORA           CLOUDY    64  52  63 W14       30.07S
CAMBRIDGE      SUNNY     72  54  53 W15G21    30.05S
RUSH CITY      MOSUNNY   68  53  58 W7G21     30.06S
MOOSE LAKE     CLOUDY    64  54  68 SW9G16    30.01S
HINCKLEY       CLOUDY    68  54  60 W9        30.05S
CLOQUET        PTSUNNY   66  52  59 SW13G20   30.00S
MCGREGOR       CLOUDY    64  54  68 W14       30.03R
$$
MNZ071>073-080-081-089-090-097-098-252300-
   Southwest Minnesota

CITY           SKY/WX    TMP DP  RH WIND       PRES   REMARKS
MONTEVIDEO     PTSUNNY   70  55  60 N12       30.13R
GRANITE FALLS  MOSUNNY   71  58  62 NW12      30.12S
CANBY          PTSUNNY   71  55  56 W9        30.12F
MARSHALL       PTSUNNY   70  54  56 NW16      30.11S
REDWOOD FALLS  MOSUNNY   73  55  53 W15       30.09F
OLIVIA         PTSUNNY   70  54  56 NW8       30.09S
PIPESTONE      SUNNY     70  52  52 NW10      30.13F
WINDOM         SUNNY     73  55  53 W13       30.12R
WORTHINGTON    SUNNY     71  56  58 W13       30.14S
JACKSON        SUNNY     73  54  49 W9        30.12S
TRACY          SUNNY     73  57  57 NW10      30.12S
SLAYTON        SUNNY     72  55  56 W12G17    30.13F
$$
MNZ065>067-074>077-082>085-091>093-252300-
   South Central Minnesota

CITY           SKY/WX    TMP DP  RH WIND       PRES   REMARKS
MANKATO        MOSUNNY   72  55  56 NW12      30.09S
NEW ULM          N/A     72  55  56 NW13      30.09S
ST JAMES       MOSUNNY   68  54  60 W6        30.11S
FAIRMONT       SUNNY     74  58  57 NW12      30.11S
GLENCOE        MOSUNNY   71  60  67 W10G16    30.09S
FARIBAULT      MOSUNNY   72  57  60 W12       30.09S
OWATONNA       SUNNY     73  54  49 W12       30.09S
WASECA         SUNNY     72  59  64 W13       30.11R
ALBERT LEA     MOSUNNY   73  59  60 W5        30.10R
$$
MNZ078>079-086>088-094>096-252300-
   Southeast Minnesota

CITY           SKY/WX    TMP DP  RH WIND       PRES   REMARKS
ROCHESTER      MOSUNNY   75  61  61 NW9       30.09R
RED WING       CLOUDY    73  55  53 W10       30.04S
STANTON        SUNNY     73  57  56 W12G20    30.07R
DODGE CENTER   MOSUNNY   73  54  49 W13G21    30.09S
WINONA         MOSUNNY   77  54  44 NW10G16   30.05S
AUSTIN         MOSUNNY   73  57  56 W10       30.09S
PRESTON        MOSUNNY   74  58  57 W7        30.09S
$$
ABBREVIATIONS USED IN REMARKS
   TC - TEMPERATURES IN CELSIUS
  WCI - WIND CHILL INDEX
   HX - HEAT INDEX
  VSB - VISIBILITY
$$




USA.gov is the U.S. government's official web portal to all federal, state and local government web resources and services.